Voltar ao catálogo

TITAN 3C TRANSTAGE DEB

LostHEO
NORAD 35502·DEBRIS·🇺🇸 United States

Lançado Dec 21, 1965 de Cape Canaveral Space Force Station

Loading…

Próximas Passagens (próximas 24 horas)

TLE

ObsoletoSource: Space-Track

Época: May 16, 2026, 07:11 UTC

1 35502U 65108DH  26136.29993700  .00000297  00000-0  71973-3 0  9990
2 35502  26.6689 209.4761 6607773  68.1505 347.1469  3.03814933  1384

Acompanhe TITAN 3C TRANSTAGE DEB em tempo real com AllMySat

Download on the App Store